Theta_e
298 298 298 298 298 299 299 299 300 300 300 301 302 302 303 305 308 307 308 317 316 317 317 320 321 324 332 332 332 333 325 323 324 326 328 330 329 332 332 332 332 333 332 332 332
298 298 298 298 298 298 298 298 298 299 299 300 301 301 302 302 305 307 314 312 313 315 317 318 319 325 332 331 334 334 326 324 324 325 327 329 330 332 333 332 332 332 332 332 332
298 298 298 298 298 298 298 298 298 298 298 299 299 300 300 301 303 309 312 314 314 314 315 316 318 319 328 327 328 329 330 327 325 326 327 329 331 332 332 331 332 332 332 332 333
299 300 300 300 300 300 300 299 299 299 299 298 299 299 300 300 311 315 314 313 314 314 314 315 315 316 315 322 326 325 328 329 328 327 327 328 330 331 331 330 331 330 331 332 332
300 300 301 301 301 301 301 301 301 300 300 300 299 299 299 305 304 309 311 314 313 314 313 314 314 314 313 317 323 325 325 326 328 329 329 329 330 330 331 331 330 329 329 331 331
300 301 301 301 301 301 301 301 301 301 301 301 300 300 303 307 303 306 309 310 312 315 314 313 313 314 315 316 316 323 326 327 327 326 327 327 328 328 329 328 329 329 329 329 330
301 301 301 301 301 301 301 301 301 301 301 301 303 302 307 303 302 305 310 311 311 313 314 316 317 319 318 316 318 319 321 322 324 326 326 326 327 327 328 329 329 329 329 328 328
301 301 301 301 301 301 301 300 300 301 301 305 305 304 307 302 307 307 306 309 310 311 312 313 315 314 315 319 320 321 321 321 322 323 325 326 328 327 328 329 329 329 329 329 328
301 301 300 301 301 301 300 301 303 305 305 307 308 308 309 311 310 310 309 307 308 308 309 310 312 313 314 315 316 319 322 322 323 323 324 325 327 327 328 328 328 329 329 328 329
301 300 300 300 300 300 305 307 308 308 309 311 311 311 310 311 311 310 310 311 310 310 309 310 311 312 311 313 317 319 321 322 322 323 324 325 325 326 326 327 328 328 329 329 329
300 301 300 300 300 301 307 308 308 310 310 308 309 313 313 313 312 309 308 309 310 311 308 310 310 312 313 313 316 318 322 322 322 323 324 324 325 326 327 327 326 327 329 329 329
300 301 300 300 302 308 308 309 308 306 306 306 307 307 307 307 307 308 307 307 308 308 312 311 309 312 314 315 315 316 316 317 320 323 323 324 325 326 326 326 326 326 327 328 329
301 301 300 303 306 306 308 307 307 307 306 306 307 307 308 307 308 307 307 307 307 307 308 311 312 312 314 315 316 315 316 316 317 319 320 320 321 322 323 324 326 327 328 328 328
301 301 301 303 308 308 308 307 307 307 305 308 311 311 310 308 308 307 308 308 308 306 307 307 309 314 313 314 316 316 316 317 318 318 319 320 321 321 322 323 324 326 327 328 328
301 301 302 308 308 309 308 307 307 307 310 309 310 308 308 310 311 311 312 309 308 308 307 306 308 309 312 314 315 315 318 317 318 317 317 319 319 321 322 324 325 324 326 326 327
301 305 306 308 309 307 307 307 308 310 312 310 308 307 307 308 308 310 313 313 313 309 308 308 309 308 308 310 314 315 316 316 317 316 318 318 319 320 320 321 324 324 326 326 326
301 305 307 308 309 307 307 308 310 310 309 307 306 308 308 309 310 309 310 311 313 315 308 309 309 309 310 309 310 311 313 314 317 317 318 318 320 321 321 322 324 323 325 326 327
301 305 309 310 309 308 308 308 308 308 309 306 306 307 307 308 309 309 310 309 312 313 313 314 314 313 314 309 308 310 312 314 318 319 318 319 320 319 321 322 323 324 325 329 332
303 309 310 309 309 308 308 309 305 308 307 307 307 306 307 308 308 310 310 310 311 310 313 313 313 313 313 311 311 309 310 314 315 317 318 319 319 320 320 320 323 323 330 336 337
304 309 310 310 308 309 308 309 308 308 308 308 306 307 307 308 309 310 310 310 311 311 311 310 311 311 310 310 311 315 312 314 314 316 318 321 319 320 321 324 322 325 329 337 338
309 312 312 309 309 310 307 309 307 308 308 307 308 307 307 309 309 308 310 310 311 310 311 311 310 311 311 310 312 315 312 311 313 315 318 321 321 321 321 322 323 325 336 337 337
309 311 309 308 310 310 308 308 307 308 308 309 308 309 308 309 309 309 310 312 310 311 312 310 312 313 312 313 313 313 313 311 313 317 318 320 320 324 326 326 325 331 336 336 336
307 311 310 309 309 308 309 308 307 308 309 309 308 308 309 309 310 311 311 310 309 310 311 311 311 313 313 313 315 315 317 316 314 317 317 319 321 320 322 328 325 332 336 336 337
308 310 309 308 308 308 308 307 308 308 308 307 308 308 309 309 308 310 311 310 309 311 312 311 310 312 314 314 314 317 317 318 320 319 318 320 320 321 326 326 327 335 336 336 336
309 309 307 306 306 306 309 308 308 309 307 308 309 309 309 309 309 309 310 310 310 311 311 312 311 312 312 313 314 315 315 316 317 318 320 320 321 320 326 335 332 335 335 335 336
308 306 306 306 306 307 309 310 310 309 308 308 308 309 309 310 309 310 309 309 309 311 311 311 315 313 315 314 315 315 313 314 315 316 319 320 320 327 330 335 335 335 335 335 335
305 305 306 306 306 307 308 309 309 308 308 308 308 310 311 310 309 309 309 309 309 309 309 311 314 316 316 317 316 315 315 314 315 316 318 321 320 329 330 335 332 334 335 335 335
Wind_Speed
17 17 17 17 17 18 18 18 18 17 15 14 14 15 18 25 29 27 31 28 20 19 19 10 7 15 14 20 19 21 5 8 10 13 16 28 14 17 14 19 12 5 4 4 2
16 17 18 19 19 18 18 18 18 19 18 16 15 14 15 20 25 33 33 31 27 22 21 25 19 16 18 14 18 17 8 17 17 14 15 24 21 23 10 10 7 14 16 22 21
17 18 18 19 20 20 20 19 18 18 18 19 18 16 14 16 23 20 12 18 24 26 26 22 19 21 24 26 23 18 19 17 22 26 31 28 25 29 18 7 14 9 18 30 27
18 19 19 19 20 21 21 20 20 19 18 19 20 19 15 10 6 5 1 11 9 24 26 26 23 22 8 16 31 19 27 27 30 32 34 26 33 25 27 21 26 29 22 26 23
19 20 20 20 21 20 20 20 20 20 20 20 19 20 19 11 25 12 13 9 13 12 26 24 25 18 9 8 23 24 20 28 32 31 35 38 32 28 31 37 36 30 35 35 30
21 22 22 23 23 23 23 21 20 19 20 22 21 20 16 16 16 15 14 18 19 8 20 24 21 23 17 15 21 21 21 29 29 32 35 27 29 31 33 39 35 32 35 36 33
20 20 21 22 23 23 23 23 23 22 22 20 20 19 19 32 22 19 20 18 14 18 20 22 23 21 10 12 36 27 21 21 26 30 27 34 30 31 34 34 33 33 37 40 37
23 23 24 24 24 23 23 24 22 18 20 17 18 12 13 23 13 15 19 20 18 18 20 21 24 21 14 15 22 17 16 22 22 20 29 22 40 13 28 31 29 33 39 33 31
26 28 28 27 26 26 28 25 16 12 17 16 18 8 14 10 16 7 7 25 20 18 21 19 18 21 16 5 6 13 21 24 26 23 19 15 28 20 33 32 34 38 42 40 41
29 30 31 29 27 25 22 20 21 16 10 8 12 9 15 7 5 7 3 9 12 16 20 24 17 10 10 11 18 11 21 26 29 12 14 21 27 30 43 32 34 37 38 39 41
29 31 32 28 25 17 22 26 27 9 9 21 27 20 31 20 20 12 9 3 10 10 8 15 8 21 36 21 14 13 21 20 18 18 16 21 23 25 21 18 19 26 27 30 34
30 33 31 26 21 10 15 18 18 20 21 37 33 40 41 39 34 33 25 25 15 9 8 9 24 24 16 14 19 20 25 24 15 14 16 22 20 24 22 19 28 35 34 35 33
28 30 26 21 16 13 17 21 20 24 9 34 23 23 34 29 32 31 30 28 16 13 12 15 15 17 20 19 19 25 27 19 21 13 23 16 15 17 17 21 25 26 31 25 23
28 29 20 21 12 14 19 25 20 20 4 11 22 13 16 15 13 29 33 28 19 17 14 15 16 21 19 22 22 24 14 20 21 13 19 6 17 21 17 19 16 26 28 35 35
27 24 17 12 17 16 23 22 20 12 4 18 4 10 11 8 15 15 24 23 19 17 12 25 14 7 16 21 19 24 13 18 16 14 15 20 9 27 10 12 9 8 26 35 24
22 16 15 12 13 22 24 18 15 2 3 10 11 17 15 16 8 6 5 20 20 15 18 19 20 17 18 19 18 18 17 21 14 9 12 20 14 30 16 19 5 10 24 25 28
19 10 9 10 13 19 17 16 3 2 7 10 18 18 18 16 19 19 2 9 1 6 14 16 19 20 20 19 18 14 14 8 9 10 17 11 11 20 7 12 15 15 23 29 32
17 8 9 9 11 16 16 4 2 5 11 16 18 10 9 15 15 21 15 12 12 14 5 10 8 9 8 18 15 13 11 10 14 14 16 11 11 7 15 17 25 32 30 7 10
14 5 5 3 10 12 13 2 3 8 10 22 18 13 13 17 11 11 12 4 4 7 4 3 6 10 16 15 10 21 18 13 17 18 5 8 9 24 24 23 15 12 12 25 31
16 12 6 7 11 7 3 4 8 19 23 19 12 11 14 13 11 7 7 5 7 2 4 3 7 8 15 15 14 13 10 5 10 16 16 8 13 10 17 14 22 10 13 27 34
10 5 7 8 7 3 1 4 18 28 26 11 13 13 12 10 8 12 8 11 14 11 7 8 4 8 9 4 9 7 14 12 7 11 13 8 10 16 20 21 14 11 28 33 38
6 4 3 5 2 4 2 13 24 22 27 17 14 17 7 10 11 9 7 4 6 17 5 5 4 7 11 18 18 15 18 15 10 8 12 6 11 7 8 7 12 19 31 36 39
15 9 7 4 1 3 8 12 19 18 17 7 13 11 11 7 5 6 6 3 15 11 3 4 3 4 7 9 9 9 11 9 7 9 17 15 12 10 13 5 12 21 32 34 39
7 4 12 14 10 10 11 12 14 18 13 21 15 14 12 14 11 4 7 5 11 13 11 0 3 7 8 15 7 12 18 17 9 9 11 17 20 13 12 8 8 28 35 36 39
4 5 14 5 11 14 11 7 12 16 13 18 5 14 15 11 15 10 14 13 12 5 2 2 6 10 14 18 17 14 16 18 13 16 10 13 12 16 11 3 19 31 33 33 34
7 7 11 20 19 15 5 3 10 13 15 12 12 17 15 13 13 15 16 12 7 4 4 6 4 8 15 18 14 13 15 17 18 22 17 21 20 5 3 16 15 26 31 31 33
9 10 9 9 10 10 10 13 10 15 10 24 18 14 15 13 23 29 25 24 14 12 10 6 3 3 5 5 10 3 14 17 14 18 18 16 22 5 11 14 5 21 28 32 32
Wind_Direction
336 334 331 329 328 326 327 325 324 321 319 316 312 308 302 289 280 276 266 259 253 241 241 228 228 195 201 231 229 223 243 257 253 248 260 293 310 317 317 290 334 45 345 322 211
338 335 333 331 329 328 326 322 320 319 317 314 308 305 308 304 289 277 271 269 256 240 233 223 222 224 226 231 224 226 227 231 246 260 269 282 292 308 332 293 287 285 292 308 311
350 346 343 338 336 336 332 328 324 318 314 312 311 310 307 308 309 285 282 273 252 234 231 235 234 229 223 226 223 235 237 237 262 267 272 278 288 304 294 260 307 270 300 294 294
349 346 344 342 340 338 335 332 328 324 319 313 310 307 303 297 248 169 311 341 277 218 217 225 231 248 250 232 223 239 235 237 248 255 268 273 283 284 288 288 296 297 275 261 255
350 347 345 343 341 338 333 329 325 322 319 314 309 305 301 254 240 250 313 313 321 218 216 220 230 235 240 249 242 233 244 243 247 251 256 268 273 274 278 285 284 285 289 286 284
354 349 345 342 339 335 330 324 319 314 310 311 306 299 287 258 272 241 256 264 268 238 220 217 229 235 273 245 248 262 253 251 251 246 253 259 266 266 263 271 274 281 277 282 283
354 349 344 341 336 333 326 319 314 309 305 307 303 291 267 258 284 256 233 228 198 223 232 237 240 223 207 247 253 265 269 268 255 253 253 261 266 254 266 272 283 281 274 273 273
351 347 341 339 335 333 326 321 311 300 291 301 303 285 258 315 321 279 231 246 239 225 235 243 252 273 272 271 270 250 264 258 252 255 253 252 260 260 276 276 277 286 279 273 269
352 348 342 341 335 336 330 330 337 304 279 296 291 283 268 327 264 293 274 241 240 242 258 254 259 267 278 253 266 230 238 249 255 236 246 235 269 267 270 266 258 260 265 269 269
351 347 344 342 336 338 344 350 353 314 299 299 290 270 268 254 330 254 280 231 225 245 251 230 233 235 240 226 220 211 226 235 248 240 238 242 252 263 262 259 260 261 260 259 260
346 345 344 342 334 338 348 360 8 13 344 290 272 241 270 275 300 287 238 259 263 218 217 253 208 220 222 221 239 255 238 253 249 240 262 258 259 265 271 245 259 265 260 262 260
348 346 340 346 347 3 352 343 350 316 301 288 273 267 263 270 285 280 274 289 271 235 221 228 231 232 239 236 237 246 260 262 274 244 254 252 257 249 251 259 252 255 257 263 266
346 344 341 355 352 3 344 344 335 339 313 303 293 262 264 246 252 259 256 255 254 254 240 235 249 230 234 230 237 231 238 251 257 284 281 292 290 279 286 278 271 260 256 265 251
348 344 346 352 11 357 356 344 333 339 302 312 352 7 354 229 251 254 246 234 234 241 248 260 259 241 251 226 231 241 240 242 253 257 258 238 273 267 267 266 267 266 274 271 268
351 347 352 352 351 350 329 335 326 333 302 332 292 338 324 12 305 325 325 222 225 226 217 242 274 261 250 248 230 251 259 237 259 244 259 252 263 265 212 244 245 263 260 256 258
352 353 2 18 352 348 333 335 324 328 356 311 329 343 333 347 322 329 347 316 286 216 235 251 249 255 266 272 257 261 244 249 264 257 255 243 227 263 244 248 239 249 264 273 274
349 340 346 338 335 343 348 341 56 4 310 321 348 9 7 356 348 333 97 287 193 319 228 241 243 243 253 270 273 268 230 246 239 231 239 221 241 240 257 223 225 244 255 269 267
343 324 342 306 3 325 350 346 325 311 305 323 337 12 358 344 341 341 325 275 182 193 297 273 261 279 278 233 255 263 237 216 219 223 249 246 243 237 243 258 236 248 260 245 149
341 337 324 344 317 0 2 321 214 321 282 343 334 348 339 350 15 342 325 327 341 61 200 331 273 293 302 309 254 254 254 247 250 279 252 236 240 261 255 261 246 240 165 122 139
332 327 306 228 327 13 41 281 307 327 338 327 321 340 336 345 352 30 317 330 314 33 5 327 297 270 282 303 295 270 258 257 220 232 251 266 238 262 266 261 229 197 148 131 137
337 297 190 337 340 24 108 268 321 323 306 305 348 330 335 352 321 326 236 288 332 334 8 320 260 268 291 235 263 303 245 238 271 212 232 264 261 258 255 242 200 163 147 139 142
3 296 241 21 317 249 267 321 316 324 352 335 357 333 333 328 319 322 336 319 34 316 305 292 292 291 282 284 275 286 284 230 228 256 231 260 256 261 305 139 157 143 145 144 148
339 289 304 302 288 292 303 311 322 334 334 294 324 341 339 332 321 321 299 267 308 306 325 5 311 315 300 235 225 267 285 267 234 241 222 238 247 265 294 195 167 141 144 144 146
333 320 326 317 348 329 322 320 326 319 313 346 327 333 331 327 327 299 257 253 232 260 273 165 242 235 259 292 304 281 312 321 342 251 234 229 251 266 260 228 136 146 144 145 148
337 317 350 324 325 310 333 280 305 317 337 332 308 333 328 318 312 307 320 316 305 186 102 147 251 236 251 265 277 253 278 296 306 289 262 237 240 235 257 142 145 142 140 142 147
344 346 321 300 306 301 335 303 300 309 326 311 325 310 313 308 296 309 305 301 281 180 151 168 262 278 280 267 261 252 267 283 282 281 281 255 256 345 42 121 129 139 144 147 150
320 321 315 281 304 323 330 336 323 307 312 321 306 321 313 279 295 292 285 271 247 275 273 214 225 277 265 181 153 236 249 256 261 264 262 270 236 189 65 24 12 140 147 151 153